Previsão horária em Ababuj

Hoje, 17 Abril, Sábado

Tempo Temperatura Precipitação Vento Pressão Humidade
00:00 -4°C° 0 mm 4 m/s 646 mmHg 75%
01:00 -4°C° 0 mm 4 m/s 646 mmHg 77%
02:00 -4°C° 0 mm 4 m/s 645 mmHg 79%
03:00 -5°C° 0 mm 5 m/s 645 mmHg 81%
04:00 -5°C° 0 mm 5 m/s 645 mmHg 79%
05:00 -4°C° 0 mm 4 m/s 645 mmHg 78%
06:00 -4°C° 0 mm 4 m/s 645 mmHg 77%
07:00 -4°C° 0 mm 5 m/s 645 mmHg 69%
08:00 -3°C° 0 mm 6 m/s 646 mmHg 61%
09:00 -1°C° 0 mm 7 m/s 646 mmHg 53%
10:00 0°C° 0 mm 8 m/s 646 mmHg 50%
11:00 +1°C° 0 mm 9 m/s 646 mmHg 47%
12:00 +2°C° 0 mm 9 m/s 645 mmHg 44%
13:00 +3°C° 0 mm 10 m/s 645 mmHg 44%
14:00 +3°C° 0 mm 10 m/s 645 mmHg 44%
15:00 +3°C° 0 mm 10 m/s 645 mmHg 43%
16:00 +2°C° 0 mm 10 m/s 645 mmHg 48%
17:00 +2°C° 0 mm 9 m/s 645 mmHg 52%
18:00 +1°C° 0 mm 9 m/s 645 mmHg 56%
19:00 -1°C° 0 mm 8 m/s 645 mmHg 63%
20:00 -2°C° 0 mm 6 m/s 646 mmHg 70%
21:00 -4°C° 0 mm 5 m/s 646 mmHg 77%
22:00 -4°C° 0 mm 5 m/s 646 mmHg 79%
23:00 -4°C° 0 mm 5 m/s 646 mmHg 81%

Amanhã, 18 Abril, Domingo

Tempo Temperatura Precipitação Vento Pressão Humidade
00:00 -5°C° 0 mm 5 m/s 646 mmHg 83%
01:00 -5°C° 0 mm 5 m/s 646 mmHg 82%
02:00 -5°C° 0 mm 5 m/s 646 mmHg 82%
03:00 -4°C° 0 mm 5 m/s 646 mmHg 81%
04:00 -4°C° 0 mm 5 m/s 646 mmHg 80%
05:00 -4°C° 0 mm 5 m/s 646 mmHg 78%
06:00 -4°C° 0 mm 5 m/s 646 mmHg 77%
07:00 -2°C° 0 mm 5 m/s 646 mmHg 71%
08:00 0°C° 0 mm 4 m/s 647 mmHg 65%
09:00 +1°C° 0 mm 4 m/s 647 mmHg 58%
10:00 +4°C° 0 mm 4 m/s 647 mmHg 53%
11:00 +6°C° 0 mm 5 m/s 648 mmHg 47%
12:00 +7°C° 0 mm 5 m/s 648 mmHg 42%
13:00 +8°C° 0 mm 5 m/s 647 mmHg 40%
14:00 +10°C° 0 mm 4 m/s 647 mmHg 38%
15:00 +11°C° 0 mm 4 m/s 647 mmHg 36%
16:00 +10°C° 0 mm 4 m/s 647 mmHg 37%
17:00 +10°C° 0 mm 4 m/s 647 mmHg 39%
18:00 +9°C° 0 mm 3 m/s 647 mmHg 41%
19:00 +8°C° 0 mm 2 m/s 647 mmHg 45%
20:00 +8°C° 0 mm 1 m/s 647 mmHg 50%
21:00 +6°C° 0 mm 1 m/s 647 mmHg 54%
22:00 +6°C° 0 mm 1 m/s 647 mmHg 54%
23:00 +6°C° 0 mm 1 m/s 646 mmHg 54%

Depois de amanhã, 19 Abril, Segunda-feira

Tempo Temperatura Precipitação Vento Pressão Humidade
00:00 +5°C° 0 mm 2 m/s 646 mmHg 54%
01:00 +4°C° 0 mm 2 m/s 646 mmHg 55%
02:00 +4°C° 0 mm 2 m/s 646 mmHg 56%
03:00 +4°C° 0 mm 2 m/s 645 mmHg 57%
04:00 +4°C° 0 mm 2 m/s 645 mmHg 57%
05:00 +5°C° 0 mm 1 m/s 645 mmHg 56%
06:00 +5°C° 0 mm 1 m/s 645 mmHg 56%
07:00 +6°C° 0 mm 2 m/s 645 mmHg 50%
08:00 +8°C° 0 mm 2 m/s 646 mmHg 44%
09:00 +10°C° 0 mm 2 m/s 646 mmHg 39%
10:00 +11°C° 0 mm 3 m/s 646 mmHg 35%
11:00 +12°C° 0 mm 3 m/s 646 mmHg 32%
12:00 +12°C° 0 mm 4 m/s 646 mmHg 29%
13:00 +12°C° 0 mm 4 m/s 646 mmHg 32%
14:00 +12°C° 0 mm 5 m/s 645 mmHg 35%
15:00 +12°C° 0 mm 5 m/s 645 mmHg 38%
16:00 +9°C° 0.1 mm 5 m/s 645 mmHg 47%
17:00 +8°C° 0.1 mm 4 m/s 644 mmHg 57%
18:00 +7°C° 0.1 mm 4 m/s 644 mmHg 67%
19:00 +7°C° 0 mm 3 m/s 644 mmHg 70%
20:00 +7°C° 0 mm 2 m/s 644 mmHg 72%
21:00 +7°C° 0 mm 1 m/s 644 mmHg 75%
22:00 +7°C° 0 mm 1 m/s 644 mmHg 75%
23:00 +7°C° 0 mm 1 m/s 643 mmHg 75%

20 Abril, Terça-feira

Tempo Temperatura Precipitação Vento Pressão Humidade
00:00 +6°C° 0 mm 1 m/s 643 mmHg 76%
01:00 +6°C° 0 mm 1 m/s 643 mmHg 77%
02:00 +6°C° 0 mm 1 m/s 642 mmHg 77%
03:00 +6°C° 0 mm 1 m/s 642 mmHg 78%
04:00 +6°C° 0.1 mm 1 m/s 642 mmHg 79%
05:00 +6°C° 0.1 mm 1 m/s 642 mmHg 80%
06:00 +6°C° 0.1 mm 1 m/s 642 mmHg 82%
07:00 +7°C° 0.3 mm 1 m/s 642 mmHg 81%
08:00 +7°C° 0.3 mm 1 m/s 642 mmHg 81%
09:00 +7°C° 0.3 mm 2 m/s 642 mmHg 81%
10:00 +8°C° 0.3 mm 2 m/s 642 mmHg 74%
11:00 +9°C° 0.3 mm 3 m/s 642 mmHg 68%
12:00 +10°C° 0.3 mm 3 m/s 643 mmHg 62%
13:00 +10°C° 0.3 mm 3 m/s 642 mmHg 61%
14:00 +8°C° 0.3 mm 4 m/s 642 mmHg 60%
15:00 +8°C° 0.3 mm 4 m/s 642 mmHg 60%
16:00 +8°C° 0.3 mm 4 m/s 642 mmHg 62%
17:00 +9°C° 0.3 mm 3 m/s 642 mmHg 64%
18:00 +9°C° 0.3 mm 3 m/s 642 mmHg 66%
19:00 +7°C° 0.2 mm 2 m/s 643 mmHg 72%
20:00 +6°C° 0.2 mm 2 m/s 643 mmHg 78%
21:00 +6°C° 0.2 mm 1 m/s 643 mmHg 84%
22:00 +6°C° 0 mm 1 m/s 643 mmHg 84%
23:00 +6°C° 0 mm 1 m/s 643 mmHg 85%

21 Abril, Quarta-feira

Tempo Temperatura Precipitação Vento Pressão Humidade
00:00 +5°C° 0 mm 0 m/s 643 mmHg 85%
01:00 +6°C° 0 mm 1 m/s 643 mmHg 86%
02:00 +5°C° 0 mm 1 m/s 643 mmHg 87%
03:00 +5°C° 0 mm 1 m/s 643 mmHg 88%
04:00 +5°C° 0 mm 1 m/s 643 mmHg 88%
05:00 +5°C° 0 mm 1 m/s 643 mmHg 88%
06:00 +5°C° 0 mm 1 m/s 643 mmHg 88%
07:00 +5°C° 0 mm 1 m/s 644 mmHg 85%
08:00 +6°C° 0 mm 1 m/s 644 mmHg 83%
09:00 +5°C° 0 mm 2 m/s 644 mmHg 80%
10:00 +6°C° 0.2 mm 2 m/s 645 mmHg 76%
11:00 +7°C° 0.2 mm 2 m/s 645 mmHg 71%
12:00 +8°C° 0.2 mm 2 m/s 645 mmHg 67%
13:00 +8°C° 0.4 mm 2 m/s 645 mmHg 68%
14:00 +8°C° 0.4 mm 2 m/s 644 mmHg 68%
15:00 +8°C° 0.4 mm 2 m/s 644 mmHg 69%
16:00 +8°C° 0.6 mm 2 m/s 645 mmHg 70%
17:00 +8°C° 0.6 mm 1 m/s 645 mmHg 71%
18:00 +8°C° 0.6 mm 1 m/s 645 mmHg 72%
19:00 +7°C° 0 mm 1 m/s 645 mmHg 74%
20:00 +7°C° 0 mm 1 m/s 646 mmHg 76%
21:00 +6°C° 0 mm 1 m/s 646 mmHg 79%
22:00 +6°C° 0 mm 1 m/s 646 mmHg 79%
23:00 +6°C° 0 mm 1 m/s 646 mmHg 79%

22 Abril, Quinta-feira

Tempo Temperatura Precipitação Vento Pressão Humidade
00:00 +6°C° 0 mm 1 m/s 646 mmHg 79%
01:00 +6°C° 0 mm 1 m/s 646 mmHg 79%
02:00 +6°C° 0 mm 1 m/s 646 mmHg 79%
03:00 +6°C° 0 mm 1 m/s 646 mmHg 79%
04:00 +6°C° 0 mm 1 m/s 646 mmHg 78%
05:00 +6°C° 0 mm 1 m/s 646 mmHg 77%
06:00 +6°C° 0 mm 1 m/s 646 mmHg 77%
07:00 +7°C° 0 mm 1 m/s 647 mmHg 71%
08:00 +8°C° 0 mm 1 m/s 647 mmHg 66%
09:00 +8°C° 0 mm 2 m/s 647 mmHg 61%
10:00 +9°C° 0.1 mm 2 m/s 648 mmHg 58%
11:00 +10°C° 0.1 mm 2 m/s 648 mmHg 55%
12:00 +12°C° 0.1 mm 2 m/s 648 mmHg 52%
13:00 +11°C° 0.1 mm 3 m/s 648 mmHg 53%
14:00 +11°C° 0.1 mm 3 m/s 647 mmHg 53%
15:00 +11°C° 0.1 mm 3 m/s 647 mmHg 54%
16:00 +10°C° 0.1 mm 3 m/s 647 mmHg 58%
17:00 +10°C° 0.1 mm 3 m/s 647 mmHg 63%
18:00 +9°C° 0.1 mm 2 m/s 647 mmHg 67%
19:00 +8°C° 0 mm 2 m/s 647 mmHg 73%
20:00 +8°C° 0 mm 1 m/s 647 mmHg 79%
21:00 +7°C° 0 mm 1 m/s 647 mmHg 84%
22:00 +7°C° 0 mm 1 m/s 647 mmHg 83%
23:00 +7°C° 0 mm 1 m/s 647 mmHg 81%
Mostrar mais

Necessitamos do seu Consentimento

A Meteoprog e os seus Fornecedores de Serviços podem armazenar e aceder a dados pessoais como cookies, identificadores do dispositivo ou outras tecnologias semelhantes existentes no seu dispositivo e processar estes dados para personalizar conteúdos e anúncios, assim como funcionalidades nas redes sociais e análise de tráfego.

  • Armazenar e/ou aceder a informações no seu dispositivo

    Os cookies, identificadores do dispositivo ou outras informações podem ser armazenados ou acedidos no seu dispositivo, para os fins acima indicados.

  • Anúncios e conteúdos personalizados, medição de anúncios e conteúdos, dados sobre o público-alvo e desenvolvimento de produtos

    Os anúncios e os conteúdos podem ser personalizados com base num perfil. Podem ser adicionados dados adicionais para uma maior personalização dos anúncios e dos conteúdos. A eficácia dos anúncios e dos conteúdos pode ser medida. Podem ser obtidas informações sobre o público que visualizou os anúncios e os conteúdos. Estes dados podem ser usados para desenvolver ou melhorar sistemas, softwares ou a experiência do utilizador.

Ao clicar em "Eu concordo”, permitirá o uso de cookies, identificadores do dispositivo e web beacons mencionados ou outras tecnologias semelhantes. As configurações do navegador do seu dispositivo podem ser alteradas.

Para certos fins, podem ser invocados interesses legítimos ao invés de consentimento. Pode ler mais informação sobre este assunto na nossa Política de Privacidade e Cookies.